Back to catalog

STARLINK-36047

AliveCommunicationsVLEO
NORAD 66795·PAYLOAD·🇺🇸 United States

Launched Dec 1, 2025 from Cape Canaveral Space Force Station

Loading…

Next Passes (next 24 hours)

TLE

FreshSource: CelesTrak SupGP

Epoch: Sep 15, 2026, 04:18 UTC

1 66795C 25278E   26258.17965278  .00033496  00000+0  12134-2 0  2580
2 66795  43.0023 124.3442 0001443 277.2445 235.4398 15.27558210    11

Track STARLINK-36047 in real time with AllMySat

Download on the App Store